Location: Starlight Observatory
(38.4029°N, 85.8936°W)
Time: 08:02:54
(UTC-04:00)

Daily predictions for brighter satellites

Satellite Brightness Start Highest point End
(mag) Time Altitude Azimuth Time Altitude Azimuth Time Altitude Azimuth
Cosmos 2322 Rocket 2.2 20:45:57 10° SSW 20:51:37 73° ESE 20:57:18 10° NNE
Cosmos 1536 Rocket 4.1 20:47:50 10° N 20:51:53 37° ENE 20:55:55 10° SSE
Lacrosse 5 1.9 20:47:18 10° SSW 20:52:19 67° SE 20:57:22 10° NE
Atlas Centaur 2 3.7 20:46:37 10° W 20:54:36 44° SSW 21:01:55 10° ESE
ATLAS 2AS CENTAUR R/B 3.1 20:50:34 10° SSW 20:57:58 59° ESE 21:05:53 10° NE
Cosmos 2026 Rocket 4.5 20:53:47 10° SSW 21:00:06 71° W 21:06:30 10° N
SL-16 R/B 2.3 20:59:35 10° SSW 21:05:15 87° WNW 21:10:57 10° NNE
Helios 1B rocket 4.2 21:04:25 10° ENE 21:06:29 13° E 21:08:10 11° ESE
NOSS 2-3 (E) 4.0 21:04:02 10° SW 21:08:39 81° NW 21:13:59 10° NNE
Meteor 1-11 Rocket 3.7 21:07:16 10° S 21:13:05 76° E 21:18:47 10° NNE
GPS 2-05 Rocket1 3.9 21:11:44 10° W 21:14:52 33° SSW 21:17:20 14° SE
Cosmos 1110 Rocket 4.4 21:10:13 10° SSE 21:14:57 38° ESE 21:19:43 10° NE
Cosmos 2322 4.2 21:13:39 10° S 21:18:48 38° ESE 21:23:59 10° NE
SJ-6B 4.3 21:15:09 10° S 21:18:59 40° W 21:22:53 10° NNW
Delta 2 Rocket 3.5 21:15:31 10° WSW 21:19:13 51° S 21:22:33 15° E
Cosmos 2360 Rocket 2.3 21:17:31 10° S 21:22:56 51° ESE 21:28:23 10° NNE
SeaSat 1 2.8 21:18:28 10° NE 21:23:08 42° ESE 21:27:46 10° S
Cosmos 1331 Rocket 4.3 21:21:10 10° S 21:26:01 43° ESE 21:30:57 10° NNE
Meteor 1-23 Rocket 4.4 21:20:52 10° N 21:26:17 50° ENE 21:31:39 10° SSE
Cosmos 1850 Rocket 4.1 21:23:58 10° NNW 21:29:19 84° WSW 21:34:34 10° SSE
COSMOS 2428 3.6 21:27:21 10° SSE 21:31:59 26° ESE 21:36:37 10° NE
Resurs 1-3 3.9 21:32:59 10° S 21:37:20 67° WSW 21:41:43 10° NNW
Cosmos 220 Rocket 4.0 21:34:47 10° NNW 21:39:05 67° ENE 21:42:04 20° SSE
CZ-4B DEB 4.4 21:42:42 17° ENE 21:42:42 17° ENE 21:44:15 10° NNE
Meteor 1-5 Rocket 4.0 21:39:27 10° S 21:44:47 83° E 21:50:05 10° N
Cosmos 2333 Rocket 4.1 21:47:12 12° ENE 21:47:12 12° ENE 21:48:08 10° ENE
Cosmos 883 Rocket 4.4 21:39:18 10° N 21:45:27 72° E 21:51:30 10° SSE
Cosmos 1025 Rocket 3.2 21:44:28 10° N 21:48:39 50° E 21:50:37 28° SE
Cosmos 1300 Rocket 4.2 21:44:51 10° SSW 21:49:04 56° W 21:53:20 10° N
Cosmos 1607 4.1 21:43:00 10° NNW 21:49:30 84° WSW 21:54:25 18° SSE
USA 186 3.2 21:46:39 10° S 21:49:50 40° W 21:53:02 10° NNW
Cosmos 1536 3.6 21:46:04 10° SSW 21:50:02 53° W 21:54:02 10° N
Okean 1 Rocket 3.1 21:47:48 10° S 21:52:09 82° W 21:56:33 10° N
Cosmos 1939 Rocket 2.7 21:51:36 20° SSE 21:54:18 88° WSW 21:58:14 10° NNW
Spot 2 Rocket 4.3 21:50:54 10° S 21:55:50 50° W 22:00:48 10° NNW
USA 238 DEB 4.0 21:50:13 10° NNW 21:57:11 55° NE 22:01:04 27° ESE
USA 238 4.0 21:50:19 10° NNW 21:57:17 55° NE 22:01:09 27° ESE
Meteor 2-4 Rocket 4.3 21:52:12 10° NNW 21:57:43 59° W 22:03:22 10° S
Tiangong 1 1.7 21:55:22 10° W 21:57:58 36° SSW 21:58:00 36° SSW
Helios 1A 2.9 22:01:07 34° SSE 22:02:50 69° ENE 22:07:04 10° N
ATLAS 3B R/B 2.6 22:00:05 10° NNW 22:06:48 71° NE 22:09:58 32° SE
Cosmos 1818 3.6 22:01:33 10° SSW 22:06:49 56° ESE 22:12:08 10° NE
SL-8 R/B 4.1 22:02:49 10° NW 22:07:32 54° NNE 22:09:13 35° E
Cosmos 1238 Rocket 4.3 22:01:31 10° N 22:07:54 47° ENE 22:10:05 34° SE
ERS-1 Rocket 3.3 22:06:57 36° ESE 22:08:21 46° ENE 22:13:08 10° N
YAOGAN 6 2.6 22:10:08 43° S 22:11:09 74° W 22:14:41 10° NNW
ARGOS 3.7 22:12:31 35° E 22:13:36 38° ENE 22:18:31 10° N
Okean 1-7 Rocket 3.6 22:10:29 10° N 22:15:00 83° W 22:16:59 34° S
USA 267 4.2 22:10:53 16° S 22:15:35 40° SW 22:21:42 10° WNW
Resurs 01 Rocket 4.0 22:15:08 10° SW 22:18:33 21° W 22:21:58 10° NW
Abrixas 4.2 22:18:25 10° WSW 22:19:47 25° W 22:19:47 25° W
Meteor 1-29 3.1 22:17:53 10° NNE 22:20:47 62° NNE 22:20:47 62° NNE
BREEZE-M DEB (TANK) 4.4 22:21:26 10° W 22:24:51 41° N 22:35:11 10° ENE
Cosmos 2263 Rocket 3.8 22:24:40 10° NW 22:29:35 31° WSW 22:34:06 12° SSW
Aureole 3 Rocket 4.1 22:22:06 10° N 22:29:55 66° E 22:31:41 46° SE
USA 245 4.2 22:31:48 44° ENE 22:31:48 44° ENE 22:35:19 10° N
SPOT 5 3.4 22:31:51 40° ENE 22:31:51 40° ENE 22:35:54 10° N
Cosmos 2315 Rocket 4.4 22:29:31 10° NNW 22:35:41 62° W 22:39:59 21° SSW
Lacrosse 5 4.1 22:31:33 10° W 22:35:41 24° NNW 22:39:48 10° NNE
Cosmos 1844 Rocket 2.7 22:30:24 10° NNW 22:36:02 61° ENE 22:36:49 55° E
Cosmos 2278 Rocket 3.5 22:33:19 10° N 22:37:57 25° ENE 22:38:10 25° ENE
MetOp-B 4.0 22:37:45 60° SE 22:38:42 78° ENE 22:44:03 10° N
Helios 1B rocket 3.6 22:38:04 10° N 22:41:58 43° WNW 22:44:31 19° SW
Atlas Centaur 2 4.1 22:37:08 10° WSW 22:43:29 25° SSW 22:45:00 23° S
Cosmos 1892 Rocket 3.6 22:41:42 10° N 22:45:55 78° NW 22:45:55 78° NW
H-2A R/B 2.4 22:46:54 48° NE 22:46:54 48° NE 22:51:14 10° N
Cosmos 2219 Rocket 2.0 22:50:02 73° SE 22:50:14 73° ESE 22:55:53 10° NNE
Cosmos 1745 Rocket 3.8 22:50:53 64° SE 22:51:38 71° E 22:57:46 10° NNE
CENTAUR R/B 4.3 22:47:12 10° NNW 22:53:46 28° NE 22:56:35 24° ENE
Cosmos 1486 Rocket 4.0 22:50:28 10° NNW 22:55:41 70° WSW 22:56:04 67° SW
Cosmos 1544 Rocket 3.9 22:57:19 63° WNW 22:57:19 63° WNW 23:01:33 10° N
NOSS 3-4 (A) 3.3 22:56:26 31° SSW 22:59:40 81° ESE 23:06:07 10° NE
NOSS 3-4 (C) 3.3 22:57:10 38° SSW 22:59:47 80° ESE 23:06:13 10° NE
Terra 3.4 23:04:46 25° NE 23:04:46 25° NE 23:07:18 10° N
Cosmos 1975 4.4 23:09:20 33° WNW 23:09:20 33° WNW 23:12:46 10° NNW
Cosmos 1455 Rocket 3.9 23:09:49 49° NW 23:09:49 49° NW 23:13:37 10° N
Cosmos 1386 Rocket 4.3 23:11:06 80° E 23:11:06 80° E 23:17:22 10° N
COSMOS 2428 3.9 23:10:34 10° SW 23:15:58 42° WNW 23:21:23 10° N
Cosmos 1844 3.8 23:15:28 10° NNW 23:20:44 71° WNW 23:20:44 71° WNW
Cosmos 2333 Rocket 2.5 23:29:06 63° NW 23:29:06 63° NW 23:34:15 10° NNE
Cosmos 2237 Rocket 3.2 23:42:11 39° NNE 23:42:11 39° NNE 23:45:39 10° NNE
Nadezhda 1 Rocket 4.4 23:36:29 10° NNW 23:42:40 56° W 23:42:45 56° W
NOSS 3-2 (A) 4.2 23:37:11 10° NW 23:44:44 62° WSW 23:45:10 62° SW
